Flag for Czech Republic Weather past 2 weeks in Ostrava, Czech Republic

Now
53 °F

Overcast.


Feels Like: N/A
Forecast: 48 / 70 °F
Wind: N/A

Location: Ostrava / Mosnov

Current Time: May 28, 2015 at 12:02:39 PM

Latest Report: May 28, 2015 at 11:00 AM


Visibility: 19 mi

Pressure: 30.12 "Hg

Humidity: 47%

Dew point: 34 °F

Location of OstravaLocation

Historic Weather in Ostrava — Graph

°F

Ostrava temperature yesterday

Maximum temperature yesterday: 54 °F (at 1:00 PM)
Minimum temperature yesterday: 48 °F (at 6:00 AM)
Average temperature yesterday: 52 °F

Past Weeks' High & Low Weather Summary

 TemperatureHumidityPressure
High75 °F (May 19, 12:00 PM)99% (May 20, 7:00 AM)30.24 "Hg (May 20, 7:00 AM)
Low38 °F (May 15, 6:00 AM)34% (May 16, 4:00 PM)29.74 "Hg (May 19, 6:00 AM)
Average55 °F76%30.00 "Hg
* Reported May 13 10:00 AM — May 28 10:00 AM, Ostrava, Weather by CustomWeather, © 2015

Note: Actual official high and low records may vary slightly from our data, if they occured in-between our weather recording intervals... More about our weather records

Advertising

Ostrava weather history for previous 24 hours

 ConditionsComfort  
Time TempWeatherWind HumidityBarometerVisibility
10:00 AM
Thu, May 28
53 °FOvercast.3 mph48%30.12 "Hg16 mi
9:00 AM52 °FOvercast.N/A62%30.12 "Hg16 mi
8:00 AM51 °FOvercast.N/A67%30.12 "Hg16 mi
7:00 AM50 °FOvercast.N/A69%30.11 "Hg16 mi
4:00 AM48 °FOvercast.N/A75%30.10 "Hg12 mi
3:00 AM49 °FOvercast.2 mph74%30.10 "Hg12 mi
2:00 AM49 °FOvercast.N/A74%30.10 "Hg12 mi
1:00 AM49 °FOvercast.N/A73%30.11 "Hg12 mi
12:00 AM49 °FOvercast.3 mph73%30.11 "Hg12 mi
10:00 PM
Wed, May 27
50 °FOvercast.3 mph69%30.11 "Hg12 mi
9:00 PM51 °FOvercast.3 mph66%30.10 "Hg19 mi
8:00 PM51 °FOvercast.3 mph60%30.09 "Hg19 mi
7:00 PM53 °FOvercast.3 mph58%30.08 "Hg19 mi
6:00 PM53 °FOvercast.5 mph55%30.06 "Hg25 mi
5:00 PM54 °FOvercast.5 mph59%30.06 "Hg25 mi
4:00 PM53 °FOvercast.5 mph60%30.06 "Hg25 mi
3:00 PM52 °FOvercast.3 mph64%30.06 "Hg25 mi
2:00 PM52 °FOvercast.7 mph62%30.06 "Hg25 mi
1:00 PM54 °FOvercast.8 mph61%30.06 "Hg16 mi
12:00 PM52 °FOvercast.7 mph64%30.06 "Hg16 mi
Weather by CustomWeather, © 2015

See weather overviewHow to use our weather pages